| time (UTC) | temp F | wind direction | speed MPH | gust MPH | rain 1hr in | rain 24hr in | rain mn in | humidity % | barometer mb |
| 20260901230520 | 74 | 0 | 0.0 | 0.0 | 0.00 | 0.18 | 0.18 | 91 | 1015.6 |
| 20260901230040 | 74 | 0 | 0.0 | 0.0 | 0.00 | 0.18 | 0.18 | 91 | 1015.5 |
| 20260901225518 | 74 | 0 | 0.0 | 0.0 | 0.00 | 0.18 | 0.18 | 91 | 1015.7 |
| 20260901225020 | 75 | 0 | 0.0 | 0.0 | 0.00 | 0.18 | 0.18 | 91 | 1015.7 |
| 20260901224541 | 75 | 0 | 0.0 | 0.0 | 0.00 | 0.18 | 0.18 | 91 | 1015.7 |
| 20260901224024 | 75 | 0 | 0.0 | 2.0 | 0.00 | 0.18 | 0.18 | 91 | 1015.7 |
| 20260901223524 | 75 | 0 | 0.0 | 2.0 | 0.00 | 0.18 | 0.18 | 90 | 1015.6 |
| 20260901223047 | 75 | 0 | 0.0 | 1.0 | 0.00 | 0.18 | 0.18 | 90 | 1015.6 |
| 20260901222520 | 75 | 0 | 0.0 | 1.0 | 0.00 | 0.18 | 0.18 | 90 | 1015.5 |
| 20260901222024 | 76 | 0 | 0.0 | 1.0 | 0.00 | 0.18 | 0.18 | 90 | 1015.4 |
| 20260901221540 | 76 | 0 | 0.0 | 3.0 | 0.00 | 0.18 | 0.18 | 89 | 1015.5 |
| 20260901221019 | 76 | 0 | 0.0 | 3.0 | 0.00 | 0.18 | 0.18 | 89 | 1015.4 |
| 20260901220524 | 76 | 0 | 0.0 | 0.0 | 0.00 | 0.18 | 0.18 | 89 | 1015.5 |
| 20260901220049 | 76 | 0 | 0.0 | 2.0 | 0.00 | 0.18 | 0.18 | 90 | 1015.5 |
| 20260901215524 | 76 | 0 | 0.0 | 2.0 | 0.00 | 0.18 | 0.18 | 89 | 1015.3 |
| 20260901215023 | 76 | 0 | 0.0 | 1.0 | 0.00 | 0.18 | 0.18 | 90 | 1015.2 |
| 20260901214542 | 76 | 0 | 0.0 | 3.0 | 0.00 | 0.18 | 0.18 | 89 | 1015.3 |
| 20260901214019 | 76 | 0 | 0.0 | 3.0 | 0.00 | 0.18 | 0.18 | 89 | 1015.2 |
| 20260901213523 | 76 | 0 | 0.0 | 1.0 | 0.00 | 0.18 | 0.18 | 89 | 1015.0 |
| 20260901213102 | 76 | 0 | 0.0 | 1.0 | 0.00 | 0.18 | 0.18 | 90 | 1015.3 |
| 20260901212520 | 76 | 0 | 0.0 | 0.0 | 0.00 | 0.18 | 0.18 | 90 | 1015.6 |
| 20260901212021 | 76 | 0 | 0.0 | 2.0 | 0.00 | 0.18 | 0.18 | 90 | 1015.5 |
| 20260901211540 | 76 | 0 | 0.0 | 2.0 | 0.00 | 0.18 | 0.18 | 90 | 1015.6 |
| 20260901211022 | 76 | 0 | 0.0 | 1.0 | 0.00 | 0.18 | 0.18 | 90 | 1015.6 |
| 20260901210520 | 76 | 0 | 0.0 | 1.0 | 0.00 | 0.18 | 0.18 | 90 | 1015.6 |
| 20260901210040 | 76 | 0 | 0.0 | 0.0 | 0.00 | 0.18 | 0.18 | 91 | 1015.5 |
| 20260901205525 | 76 | 0 | 0.0 | 0.0 | 0.00 | 0.18 | 0.18 | 92 | 1015.4 |
| 20260901205021 | 76 | 0 | 0.0 | 0.0 | 0.00 | 0.18 | 0.18 | 91 | 1015.3 |
| 20260901204547 | 76 | 0 | 0.0 | 0.0 | 0.00 | 0.18 | 0.18 | 92 | 1015.4 |
| 20260901204022 | 76 | 0 | 0.0 | 0.0 | 0.00 | 0.18 | 0.18 | 91 | 1015.4 |
| 20260901203539 | 76 | 0 | 0.0 | 0.0 | 0.00 | 0.18 | 0.18 | 91 | 1015.4 |
| 20260901203041 | 76 | 0 | 0.0 | 0.0 | 0.00 | 0.18 | 0.18 | 91 | 1015.2 |
| 20260901202521 | 76 | 0 | 0.0 | 0.0 | 0.00 | 0.18 | 0.18 | 90 | 1015.3 |
| 20260901202021 | 77 | 0 | 0.0 | 0.0 | 0.00 | 0.18 | 0.18 | 90 | 1015.1 |
| 20260901201541 | 77 | 0 | 0.0 | 0.0 | 0.00 | 0.18 | 0.18 | 90 | 1015.2 |
| 20260901201021 | 77 | 0 | 0.0 | 0.0 | 0.00 | 0.18 | 0.18 | 90 | 1015.2 |
| 20260901200519 | 77 | 0 | 0.0 | 1.0 | 0.00 | 0.18 | 0.18 | 89 | 1015.1 |
| 20260901200040 | 77 | 0 | 0.0 | 1.0 | 0.00 | 0.18 | 0.18 | 89 | 1015.1 |
| 20260901195524 | 78 | 0 | 0.0 | 1.0 | 0.00 | 0.18 | 0.18 | 88 | 1015.2 |
| 20260901195018 | 78 | 0 | 0.0 | 3.0 | 0.00 | 0.18 | 0.18 | 88 | 1015.1 |
| 20260901194542 | 77 | 0 | 0.0 | 3.0 | 0.00 | 0.18 | 0.18 | 88 | 1015.1 |
| 20260901194020 | 77 | 0 | 0.0 | 4.0 | 0.00 | 0.18 | 0.18 | 88 | 1015.0 |
| 20260901193518 | 77 | 0 | 0.0 | 4.0 | 0.00 | 0.18 | 0.18 | 88 | 1015.1 |
| 20260901193041 | 77 | 0 | 0.0 | 4.0 | 0.00 | 0.18 | 0.18 | 88 | 1015.1 |
| 20260901192517 | 77 | 0 | 0.0 | 3.0 | 0.00 | 0.18 | 0.18 | 89 | 1015.2 |
| 20260901192020 | 77 | 0 | 0.0 | 3.0 | 0.00 | 0.18 | 0.18 | 88 | 1015.3 |
| 20260901191540 | 77 | 0 | 0.0 | 3.0 | 0.00 | 0.18 | 0.18 | 90 | 1015.2 |
| 20260901191025 | 77 | 0 | 0.0 | 0.0 | 0.00 | 0.18 | 0.18 | 89 | 1015.1 |
| 20260901190521 | 77 | 0 | 0.0 | 2.0 | 0.00 | 0.18 | 0.18 | 90 | 1015.1 |
| 20260901190046 | 77 | 0 | 0.0 | 2.0 | 0.00 | 0.18 | 0.18 | 91 | 1015.2 |
| 20260901185522 | 76 | 0 | 0.0 | 2.0 | 0.00 | 0.18 | 0.18 | 90 | 1015.1 |
| 20260901185021 | 76 | 0 | 0.0 | 0.0 | 0.00 | 0.18 | 0.18 | 91 | 1014.9 |
| 20260901184546 | 76 | 0 | 0.0 | 0.0 | 0.00 | 0.18 | 0.18 | 91 | 1014.9 |
| 20260901184021 | 76 | 0 | 0.0 | 1.0 | 0.00 | 0.18 | 0.18 | 91 | 1014.9 |
| 20260901183519 | 76 | 0 | 0.0 | 1.0 | 0.00 | 0.18 | 0.18 | 91 | 1014.9 |
| 20260901183038 | 76 | 0 | 0.0 | 1.0 | 0.00 | 0.18 | 0.18 | 91 | 1014.7 |
| 20260901182523 | 76 | 0 | 0.0 | 0.0 | 0.00 | 0.18 | 0.18 | 91 | 1014.7 |
| 20260901182025 | 76 | 0 | 0.0 | 0.0 | 0.00 | 0.18 | 0.18 | 92 | 1014.6 |
| 20260901181541 | 76 | 0 | 0.0 | 2.0 | 0.00 | 0.18 | 0.18 | 91 | 1014.6 |
| 20260901181021 | 77 | 0 | 0.0 | 2.0 | 0.00 | 0.18 | 0.18 | 90 | 1014.6 |
| 20260901180521 | 77 | 0 | 0.0 | 2.0 | 0.00 | 0.18 | 0.18 | 90 | 1014.6 |
| 20260901180041 | 77 | 0 | 0.0 | 2.0 | 0.00 | 0.18 | 0.18 | 89 | 1014.5 |
| 20260901175521 | 77 | 0 | 0.0 | 1.0 | 0.00 | 0.19 | 0.18 | 90 | 1014.5 |
| 20260901175020 | 77 | 0 | 0.0 | 0.0 | 0.00 | 0.19 | 0.18 | 90 | 1014.5 |
| 20260901174541 | 77 | 0 | 0.0 | 0.0 | 0.00 | 0.19 | 0.18 | 89 | 1014.4 |
| 20260901174021 | 77 | 0 | 0.0 | 0.0 | 0.00 | 0.19 | 0.18 | 89 | 1014.3 |
| 20260901173522 | 77 | 0 | 0.0 | 0.0 | 0.00 | 0.19 | 0.18 | 90 | 1014.3 |
| 20260901173036 | 77 | 0 | 0.0 | 0.0 | 0.00 | 0.19 | 0.18 | 89 | 1014.4 |
| 20260901172526 | 78 | 0 | 0.0 | 1.0 | 0.00 | 0.19 | 0.18 | 89 | 1014.3 |
| 20260901172021 | 78 | 0 | 0.0 | 1.0 | 0.00 | 0.19 | 0.18 | 88 | 1014.2 |
| 20260901171549 | 78 | 0 | 0.0 | 3.0 | 0.00 | 0.19 | 0.18 | 87 | 1014.2 |
| 20260901171018 | 78 | 0 | 0.0 | 3.0 | 0.00 | 0.19 | 0.18 | 88 | 1014.3 |
| 20260901170521 | 78 | 0 | 0.0 | 3.0 | 0.00 | 0.19 | 0.18 | 88 | 1014.3 |
| 20260901170048 | 77 | 0 | 0.0 | 0.0 | 0.00 | 0.19 | 0.18 | 90 | 1014.3 |
| 20260901165519 | 77 | 0 | 0.0 | 0.0 | 0.00 | 0.19 | 0.18 | 92 | 1014.3 |
| 20260901165020 | 76 | 0 | 0.0 | 0.0 | 0.00 | 0.19 | 0.18 | 91 | 1014.4 |
| 20260901164544 | 76 | 0 | 0.0 | 0.0 | 0.00 | 0.19 | 0.18 | 93 | 1014.3 |
| 20260901164021 | 76 | 0 | 0.0 | 0.0 | 0.00 | 0.19 | 0.18 | 94 | 1014.4 |
| 20260901163520 | 76 | 0 | 0.0 | 0.0 | 0.00 | 0.19 | 0.18 | 95 | 1014.3 |
| 20260901163038 | 75 | 0 | 0.0 | 0.0 | 0.00 | 0.19 | 0.18 | 95 | 1014.4 |
| 20260901162518 | 75 | 0 | 0.0 | 0.0 | 0.00 | 0.19 | 0.18 | 94 | 1014.4 |
| 20260901162022 | 75 | 0 | 0.0 | 0.0 | 0.00 | 0.19 | 0.18 | 95 | 1014.6 |
| 20260901161541 | 75 | 0 | 0.0 | 0.0 | 0.00 | 0.19 | 0.18 | 96 | 1014.4 |
| 20260901161023 | 74 | 0 | 0.0 | 0.0 | 0.00 | 0.19 | 0.18 | 97 | 1014.5 |
| 20260901160520 | 74 | 0 | 0.0 | 0.0 | 0.00 | 0.19 | 0.18 | 97 | 1014.3 |
| 20260901160040 | 74 | 0 | 0.0 | 0.0 | 0.00 | 0.19 | 0.18 | 98 | 1014.4 |
| 20260901155518 | 74 | 0 | 0.0 | 0.0 | 0.00 | 0.19 | 0.18 | 98 | 1014.6 |
| 20260901155020 | 74 | 0 | 0.0 | 0.0 | 0.00 | 0.19 | 0.18 | 98 | 1014.6 |
| 20260901154541 | 74 | 0 | 0.0 | 3.0 | 0.00 | 0.19 | 0.18 | 98 | 1014.6 |
| 20260901154017 | 73 | 0 | 0.0 | 3.0 | 0.00 | 0.19 | 0.18 | 99 | 1014.5 |
| 20260901153520 | 74 | 0 | 0.0 | 3.0 | 0.00 | 0.19 | 0.18 | 99 | 1014.5 |
| 20260901153046 | 74 | 0 | 0.0 | 0.0 | 0.00 | 0.19 | 0.18 | 100 | 1014.5 |
| 20260901152520 | 73 | 0 | 0.0 | 0.0 | 0.00 | 0.19 | 0.18 | 100 | 1014.5 |
| 20260901152018 | 72 | 0 | 0.0 | 0.0 | 0.00 | 0.19 | 0.18 | 100 | 1014.6 |
| 20260901151537 | 72 | 0 | 0.0 | 0.0 | 0.00 | 0.19 | 0.18 | 99 | 1014.7 |
| 20260901151023 | 71 | 0 | 0.0 | 0.0 | 0.00 | 0.19 | 0.18 | 99 | 1014.7 |
| 20260901150517 | 71 | 0 | 0.0 | 0.0 | 0.00 | 0.19 | 0.18 | 99 | 1014.7 |
| 20260901150040 | 71 | 0 | 0.0 | 0.0 | 0.00 | 0.19 | 0.18 | 99 | 1014.8 |
| 20260901145519 | 71 | 0 | 0.0 | 0.0 | 0.00 | 0.19 | 0.18 | 99 | 1014.9 |
| 20260901145024 | 71 | 0 | 0.0 | 0.0 | 0.00 | 0.19 | 0.18 | 99 | 1014.8 |
| 20260901144536 | 70 | 0 | 0.0 | 0.0 | 0.00 | 0.19 | 0.18 | 99 | 1014.8 |
| 20260901144021 | 70 | 0 | 0.0 | 0.0 | 0.00 | 0.19 | 0.18 | 99 | 1014.9 |
| 20260901143521 | 70 | 0 | 0.0 | 0.0 | 0.00 | 0.19 | 0.18 | 99 | 1014.9 |
| 20260901143041 | 70 | 0 | 0.0 | 0.0 | 0.00 | 0.19 | 0.18 | 99 | 1014.8 |
| 20260901142521 | 70 | 0 | 0.0 | 0.0 | 0.00 | 0.19 | 0.18 | 99 | 1014.9 |
| 20260901142018 | 70 | 0 | 0.0 | 0.0 | 0.00 | 0.19 | 0.18 | 99 | 1014.9 |
| 20260901141541 | 70 | 0 | 0.0 | 0.0 | 0.00 | 0.19 | 0.18 | 99 | 1014.8 |
| 20260901141020 | 69 | 0 | 0.0 | 0.0 | 0.00 | 0.19 | 0.18 | 99 | 1014.9 |
| 20260901140519 | 69 | 0 | 0.0 | 0.0 | 0.00 | 0.19 | 0.18 | 99 | 1014.9 |
| 20260901140037 | 69 | 0 | 0.0 | 0.0 | 0.00 | 0.19 | 0.18 | 99 | 1014.7 |
| 20260901135524 | 69 | 0 | 0.0 | 0.0 | 0.00 | 0.19 | 0.18 | 99 | 1014.6 |
| 20260901135023 | 69 | 0 | 0.0 | 0.0 | 0.00 | 0.19 | 0.18 | 99 | 1014.7 |
| 20260901134537 | 69 | 0 | 0.0 | 0.0 | 0.00 | 0.19 | 0.18 | 99 | 1014.8 |
| 20260901134025 | 69 | 0 | 0.0 | 0.0 | 0.00 | 0.19 | 0.18 | 99 | 1014.9 |
| 20260901133524 | 69 | 0 | 0.0 | 0.0 | 0.00 | 0.19 | 0.18 | 99 | 1014.8 |
| 20260901133037 | 69 | 0 | 0.0 | 0.0 | 0.00 | 0.19 | 0.18 | 99 | 1015.0 |
| 20260901132521 | 70 | 0 | 0.0 | 0.0 | 0.00 | 0.19 | 0.18 | 99 | 1014.8 |
| 20260901132019 | 69 | 0 | 0.0 | 0.0 | 0.00 | 0.19 | 0.18 | 99 | 1014.7 |
| 20260901131542 | 69 | 0 | 0.0 | 0.0 | 0.00 | 0.19 | 0.18 | 99 | 1014.7 |
| 20260901131021 | 69 | 0 | 0.0 | 0.0 | 0.00 | 0.19 | 0.18 | 99 | 1014.7 |
| 20260901130518 | 69 | 0 | 0.0 | 0.0 | 0.00 | 0.19 | 0.18 | 99 | 1014.8 |
| 20260901130037 | 69 | 0 | 0.0 | 0.0 | 0.00 | 0.19 | 0.18 | 99 | 1014.9 |
| 20260901125518 | 69 | 0 | 0.0 | 0.0 | 0.00 | 0.19 | 0.18 | 99 | 1015.1 |
| 20260901125020 | 69 | 0 | 0.0 | 0.0 | 0.00 | 0.19 | 0.18 | 99 | 1015.1 |
| 20260901124541 | 69 | 0 | 0.0 | 0.0 | 0.00 | 0.19 | 0.18 | 99 | 1015.1 |
| 20260901124017 | 69 | 0 | 0.0 | 0.0 | 0.00 | 0.19 | 0.18 | 99 | 1015.0 |
| 20260901123524 | 69 | 0 | 0.0 | 0.0 | 0.00 | 0.19 | 0.18 | 99 | 1015.2 |
| 20260901123040 | 69 | 0 | 0.0 | 0.0 | 0.00 | 0.19 | 0.18 | 99 | 1015.2 |
| 20260901122520 | 69 | 0 | 0.0 | 0.0 | 0.00 | 0.19 | 0.18 | 99 | 1015.3 |
| 20260901122017 | 69 | 0 | 0.0 | 0.0 | 0.00 | 0.19 | 0.18 | 99 | 1015.3 |
| 20260901121541 | 69 | 0 | 0.0 | 0.0 | 0.00 | 0.19 | 0.18 | 99 | 1015.4 |
| 20260901121022 | 68 | 0 | 0.0 | 0.0 | 0.00 | 0.19 | 0.18 | 99 | 1015.4 |
| 20260901120520 | 68 | 0 | 0.0 | 0.0 | 0.00 | 0.19 | 0.18 | 99 | 1015.4 |
| 20260901120037 | 68 | 0 | 0.0 | 0.0 | 0.00 | 0.19 | 0.18 | 99 | 1015.6 |
| 20260901115516 | 68 | 0 | 0.0 | 0.0 | 0.00 | 0.19 | 0.18 | 99 | 1015.7 |
| 20260901115027 | 68 | 0 | 0.0 | 0.0 | 0.00 | 0.19 | 0.18 | 99 | 1015.5 |
| 20260901114553 | 67 | 0 | 0.0 | 0.0 | 0.00 | 0.19 | 0.18 | 99 | 1015.4 |
| 20260901114021 | 67 | 0 | 0.0 | 0.0 | 0.00 | 0.19 | 0.18 | 99 | 1015.5 |
| 20260901113519 | 67 | 0 | 0.0 | 0.0 | 0.00 | 0.19 | 0.18 | 99 | 1015.6 |
| 20260901113035 | 67 | 0 | 0.0 | 0.0 | 0.00 | 0.19 | 0.18 | 99 | 1015.5 |
| 20260901112522 | 67 | 0 | 0.0 | 0.0 | 0.00 | 0.19 | 0.18 | 99 | 1015.3 |
| 20260901112020 | 67 | 0 | 0.0 | 0.0 | 0.00 | 0.19 | 0.18 | 99 | 1015.3 |
| 20260901111541 | 67 | 0 | 0.0 | 0.0 | 0.01 | 0.19 | 0.18 | 99 | 1015.4 |
| 20260901111027 | 67 | 0 | 0.0 | 0.0 | 0.02 | 0.19 | 0.18 | 99 | 1015.1 |
| 20260901110523 | 67 | 0 | 0.0 | 0.0 | 0.02 | 0.19 | 0.18 | 99 | 1015.0 |
| 20260901110044 | 67 | 0 | 0.0 | 0.0 | 0.03 | 0.19 | 0.18 | 99 | 1015.4 |
| 20260901105521 | 67 | 0 | 0.0 | 0.0 | 0.04 | 0.19 | 0.18 | 99 | 1015.3 |
| 20260901105022 | 67 | 0 | 0.0 | 0.0 | 0.04 | 0.19 | 0.18 | 99 | 1015.3 |
| 20260901104542 | 67 | 0 | 0.0 | 0.0 | 0.04 | 0.19 | 0.18 | 99 | 1015.3 |
| 20260901104020 | 67 | 0 | 0.0 | 0.0 | 0.04 | 0.19 | 0.18 | 99 | 1015.3 |
| 20260901103521 | 67 | 0 | 0.0 | 0.0 | 0.04 | 0.19 | 0.18 | 99 | 1015.3 |
| 20260901103046 | 67 | 0 | 0.0 | 0.0 | 0.04 | 0.19 | 0.18 | 99 | 1015.4 |
| 20260901102526 | 67 | 0 | 0.0 | 0.0 | 0.04 | 0.19 | 0.18 | 99 | 1015.5 |
| 20260901102023 | 67 | 0 | 0.0 | 0.0 | 0.04 | 0.19 | 0.18 | 99 | 1015.6 |
| 20260901101546 | 67 | 0 | 0.0 | 0.0 | 0.03 | 0.18 | 0.17 | 98 | 1015.6 |
| 20260901101023 | 67 | 0 | 0.0 | 0.0 | 0.02 | 0.17 | 0.16 | 99 | 1015.7 |
| 20260901100519 | 67 | 0 | 0.0 | 0.0 | 0.02 | 0.17 | 0.16 | 98 | 1015.5 |
| 20260901100050 | 67 | 0 | 0.0 | 0.0 | 0.00 | 0.15 | 0.14 | 99 | 1015.5 |
| 20260901095520 | 67 | 0 | 0.0 | 0.0 | 0.00 | 0.15 | 0.14 | 99 | 1015.6 |
| 20260901095022 | 67 | 0 | 0.0 | 0.0 | 0.00 | 0.15 | 0.14 | 99 | 1015.4 |
| 20260901094545 | 67 | 0 | 0.0 | 0.0 | 0.00 | 0.15 | 0.14 | 99 | 1015.3 |
| 20260901094024 | 67 | 0 | 0.0 | 0.0 | 0.00 | 0.15 | 0.14 | 98 | 1015.4 |
| 20260901093522 | 67 | 0 | 0.0 | 0.0 | 0.00 | 0.15 | 0.14 | 98 | 1015.3 |
| 20260901093042 | 67 | 0 | 0.0 | 0.0 | 0.00 | 0.15 | 0.14 | 98 | 1015.3 |
| 20260901092519 | 67 | 0 | 0.0 | 0.0 | 0.00 | 0.15 | 0.14 | 98 | 1015.2 |
| 20260901092027 | 67 | 0 | 0.0 | 0.0 | 0.01 | 0.15 | 0.14 | 98 | 1015.3 |
| 20260901091548 | 67 | 0 | 0.0 | 0.0 | 0.01 | 0.15 | 0.14 | 98 | 1015.3 |
| 20260901091028 | 67 | 0 | 0.0 | 0.0 | 0.02 | 0.15 | 0.14 | 98 | 1015.3 |
| 20260901090520 | 67 | 0 | 0.0 | 0.0 | 0.05 | 0.15 | 0.14 | 99 | 1015.2 |
| 20260901090041 | 67 | 0 | 0.0 | 0.0 | 0.08 | 0.15 | 0.14 | 98 | 1015.0 |
| 20260901085521 | 67 | 0 | 0.0 | 0.0 | 0.09 | 0.15 | 0.14 | 98 | 1015.1 |
| 20260901085025 | 67 | 0 | 0.0 | 0.0 | 0.10 | 0.15 | 0.14 | 98 | 1015.4 |
| 20260901084542 | 67 | 0 | 0.0 | 0.0 | 0.10 | 0.15 | 0.14 | 98 | 1015.3 |
| 20260901084023 | 67 | 0 | 0.0 | 0.0 | 0.11 | 0.15 | 0.14 | 98 | 1015.1 |
| 20260901083524 | 67 | 0 | 0.0 | 0.0 | 0.11 | 0.15 | 0.14 | 98 | 1015.3 |
| 20260901083042 | 67 | 0 | 0.0 | 0.0 | 0.11 | 0.15 | 0.14 | 99 | 1015.4 |
| 20260901082521 | 67 | 0 | 0.0 | 0.0 | 0.11 | 0.15 | 0.14 | 98 | 1015.2 |
| 20260901082020 | 67 | 0 | 0.0 | 0.0 | 0.10 | 0.14 | 0.13 | 98 | 1015.3 |
| 20260901081545 | 67 | 0 | 0.0 | 0.0 | 0.09 | 0.13 | 0.12 | 98 | 1015.4 |
| 20260901081020 | 67 | 0 | 0.0 | 0.0 | 0.09 | 0.13 | 0.12 | 98 | 1015.6 |
| 20260901080524 | 67 | 0 | 0.0 | 0.0 | 0.05 | 0.09 | 0.08 | 98 | 1015.5 |
| 20260901080041 | 67 | 0 | 0.0 | 0.0 | 0.03 | 0.07 | 0.06 | 98 | 1015.6 |
| 20260901075619 | 67 | 0 | 0.0 | 0.0 | 0.02 | 0.06 | 0.05 | 98 | 1015.6 |
| 20260901075019 | 67 | 0 | 0.0 | 0.0 | 0.01 | 0.05 | 0.04 | 98 | 1015.5 |
| 20260901074545 | 67 | 0 | 0.0 | 0.0 | 0.00 | 0.04 | 0.03 | 98 | 1015.7 |
| 20260901074018 | 67 | 0 | 0.0 | 0.0 | 0.00 | 0.04 | 0.03 | 98 | 1015.6 |
| 20260901073520 | 67 | 0 | 0.0 | 0.0 | 0.01 | 0.04 | 0.03 | 98 | 1015.5 |
| 20260901073039 | 67 | 0 | 0.0 | 0.0 | 0.01 | 0.04 | 0.03 | 98 | 1015.5 |
| 20260901072520 | 67 | 0 | 0.0 | 0.0 | 0.01 | 0.04 | 0.03 | 98 | 1015.5 |
| 20260901072024 | 67 | 0 | 0.0 | 0.0 | 0.01 | 0.04 | 0.03 | 98 | 1015.6 |
| 20260901071543 | 67 | 0 | 0.0 | 0.0 | 0.01 | 0.04 | 0.03 | 98 | 1015.7 |
| 20260901071023 | 67 | 0 | 0.0 | 0.0 | 0.02 | 0.04 | 0.03 | 98 | 1015.7 |
| 20260901070524 | 67 | 0 | 0.0 | 0.0 | 0.02 | 0.04 | 0.03 | 98 | 1015.7 |
| 20260901070042 | 67 | 0 | 0.0 | 0.0 | 0.02 | 0.04 | 0.03 | 98 | 1015.9 |
| 20260901065521 | 67 | 0 | 0.0 | 0.0 | 0.02 | 0.05 | 0.03 | 98 | 1016.0 |
| 20260901065020 | 67 | 0 | 0.0 | 0.0 | 0.02 | 0.05 | 0.03 | 98 | 1016.0 |
| 20260901064541 | 67 | 0 | 0.0 | 0.0 | 0.02 | 0.05 | 0.03 | 98 | 1016.2 |
| 20260901064022 | 67 | 0 | 0.0 | 0.0 | 0.02 | 0.05 | 0.03 | 98 | 1016.1 |
| 20260901063523 | 67 | 0 | 0.0 | 0.0 | 0.01 | 0.04 | 0.02 | 98 | 1016.2 |
| 20260901063044 | 67 | 0 | 0.0 | 0.0 | 0.01 | 0.04 | 0.02 | 98 | 1016.2 |
| 20260901062528 | 67 | 0 | 0.0 | 0.0 | 0.01 | 0.04 | 0.02 | 98 | 1016.2 |
| 20260901062023 | 67 | 0 | 0.0 | 0.0 | 0.01 | 0.04 | 0.02 | 98 | 1016.3 |
| 20260901061542 | 67 | 0 | 0.0 | 0.0 | 0.01 | 0.04 | 0.02 | 98 | 1016.4 |
| 20260901061021 | 67 | 0 | 0.0 | 0.0 | 0.00 | 0.03 | 0.01 | 98 | 1016.4 |
| 20260901060521 | 67 | 0 | 0.0 | 0.0 | 0.00 | 0.03 | 0.01 | 98 | 1016.4 |
| 20260901060047 | 67 | 0 | 0.0 | 0.0 | 0.00 | 0.03 | 0.01 | 98 | 1016.6 |
| 20260901055524 | 67 | 0 | 0.0 | 0.0 | 0.00 | 0.03 | 0.01 | 98 | 1016.6 |
| 20260901055026 | 67 | 0 | 0.0 | 0.0 | 0.00 | 0.03 | 0.01 | 98 | 1016.6 |
| 20260901054541 | 67 | 0 | 0.0 | 0.0 | 0.00 | 0.03 | 0.01 | 98 | 1016.6 |
| 20260901054022 | 67 | 0 | 0.0 | 0.0 | 0.01 | 0.03 | 0.01 | 98 | 1016.5 |
| 20260901053520 | 67 | 0 | 0.0 | 0.0 | 0.01 | 0.03 | 0.01 | 98 | 1016.5 |
| 20260901053050 | 67 | 0 | 0.0 | 0.0 | 0.01 | 0.03 | 0.01 | 98 | 1016.5 |
| 20260901052521 | 67 | 0 | 0.0 | 0.0 | 0.01 | 0.03 | 0.01 | 97 | 1016.6 |
| 20260901052024 | 67 | 0 | 0.0 | 0.0 | 0.01 | 0.03 | 0.01 | 98 | 1016.6 |
| 20260901051541 | 67 | 0 | 0.0 | 0.0 | 0.01 | 0.03 | 0.01 | 97 | 1016.7 |
| 20260901051026 | 67 | 0 | 0.0 | 0.0 | 0.01 | 0.03 | 0.01 | 97 | 1016.8 |
| 20260901050523 | 67 | 0 | 0.0 | 0.0 | 0.01 | 0.03 | 0.01 | 98 | 1016.9 |
| 20260901050042 | 67 | 0 | 0.0 | 0.0 | 0.01 | 0.03 | 0.01 | 98 | 1017.0 |
| 20260901045522 | 67 | 0 | 0.0 | 0.0 | 0.01 | 0.03 | 0.01 | 98 | 1017.1 |
| 20260901045021 | 67 | 0 | 0.0 | 0.0 | 0.01 | 0.03 | 0.01 | 97 | 1017.1 |
| 20260901044540 | 67 | 0 | 0.0 | 0.0 | 0.01 | 0.03 | 0.01 | 97 | 1016.9 |
| 20260901044021 | 67 | 0 | 0.0 | 0.0 | 0.00 | 0.02 | 0.00 | 97 | 1017.0 |
| 20260901043520 | 67 | 0 | 0.0 | 0.0 | 0.00 | 0.02 | 0.00 | 97 | 1017.1 |
| 20260901043042 | 67 | 0 | 0.0 | 0.0 | 0.00 | 0.02 | 0.00 | 97 | 1017.2 |
| 20260901042520 | 67 | 0 | 0.0 | 0.0 | 0.00 | 0.02 | 0.00 | 97 | 1017.0 |
| 20260901042020 | 67 | 0 | 0.0 | 0.0 | 0.00 | 0.02 | 0.00 | 97 | 1017.2 |
| 20260901041544 | 67 | 0 | 0.0 | 0.0 | 0.00 | 0.02 | 0.00 | 97 | 1017.1 |
| 20260901041021 | 67 | 0 | 0.0 | 0.0 | 0.00 | 0.02 | 0.00 | 97 | 1017.1 |
| 20260901040524 | 67 | 0 | 0.0 | 0.0 | 0.00 | 0.02 | 0.00 | 97 | 1016.8 |
| 20260901040056 | 67 | 0 | 0.0 | 0.0 | 0.00 | 0.02 | 0.00 | 97 | 1016.8 |
| 20260901035523 | 67 | 0 | 0.0 | 0.0 | 0.00 | 0.02 | 0.02 | 97 | 1016.8 |
| 20260901035023 | 67 | 0 | 0.0 | 0.0 | 0.00 | 0.02 | 0.02 | 97 | 1017.0 |
| 20260901034542 | 67 | 0 | 0.0 | 0.0 | 0.00 | 0.02 | 0.02 | 97 | 1017.2 |
| 20260901034020 | 67 | 0 | 0.0 | 0.0 | 0.00 | 0.02 | 0.02 | 97 | 1017.1 |
| 20260901033522 | 67 | 0 | 0.0 | 0.0 | 0.00 | 0.02 | 0.02 | 97 | 1017.0 |
| 20260901033041 | 67 | 0 | 0.0 | 0.0 | 0.00 | 0.02 | 0.02 | 97 | 1017.0 |
| 20260901032521 | 67 | 0 | 0.0 | 0.0 | 0.00 | 0.02 | 0.02 | 97 | 1017.1 |
| 20260901032043 | 67 | 0 | 0.0 | 0.0 | 0.00 | 0.02 | 0.02 | 97 | 1017.1 |
| 20260901031541 | 67 | 0 | 0.0 | 0.0 | 0.00 | 0.02 | 0.02 | 97 | 1017.2 |
| 20260901031023 | 67 | 0 | 0.0 | 0.0 | 0.00 | 0.02 | 0.02 | 97 | 1017.4 |
| 20260901030524 | 67 | 0 | 0.0 | 0.0 | 0.00 | 0.02 | 0.02 | 97 | 1017.4 |
| 20260901030044 | 67 | 0 | 0.0 | 0.0 | 0.00 | 0.02 | 0.02 | 97 | 1017.3 |
| 20260901025523 | 67 | 0 | 0.0 | 0.0 | 0.00 | 0.02 | 0.02 | 97 | 1017.2 |
| 20260901025026 | 67 | 0 | 0.0 | 0.0 | 0.00 | 0.02 | 0.02 | 97 | 1017.3 |
| 20260901024543 | 67 | 0 | 0.0 | 0.0 | 0.00 | 0.02 | 0.02 | 97 | 1017.4 |
| 20260901024026 | 67 | 0 | 0.0 | 0.0 | 0.00 | 0.02 | 0.02 | 97 | 1017.5 |
| 20260901023520 | 67 | 0 | 0.0 | 0.0 | 0.00 | 0.02 | 0.02 | 97 | 1017.5 |
| 20260901023041 | 67 | 0 | 0.0 | 0.0 | 0.00 | 0.02 | 0.02 | 97 | 1017.5 |
| 20260901022524 | 67 | 0 | 0.0 | 0.0 | 0.00 | 0.02 | 0.02 | 97 | 1017.5 |
| 20260901022024 | 67 | 0 | 0.0 | 0.0 | 0.00 | 0.02 | 0.02 | 97 | 1017.6 |
| 20260901021547 | 67 | 0 | 0.0 | 0.0 | 0.00 | 0.02 | 0.02 | 97 | 1017.7 |
| 20260901021025 | 67 | 0 | 0.0 | 0.0 | 0.00 | 0.02 | 0.02 | 97 | 1017.6 |
| 20260901020524 | 67 | 0 | 0.0 | 0.0 | 0.00 | 0.02 | 0.02 | 97 | 1017.7 |
| 20260901020040 | 67 | 0 | 0.0 | 0.0 | 0.00 | 0.02 | 0.02 | 97 | 1017.8 |
| 20260901015521 | 67 | 0 | 0.0 | 0.0 | 0.00 | 0.02 | 0.02 | 97 | 1017.8 |
| 20260901015020 | 67 | 0 | 0.0 | 0.0 | 0.00 | 0.02 | 0.02 | 97 | 1017.8 |
| 20260901014541 | 67 | 0 | 0.0 | 0.0 | 0.00 | 0.02 | 0.02 | 97 | 1017.9 |
| 20260901014024 | 67 | 0 | 0.0 | 0.0 | 0.00 | 0.02 | 0.02 | 96 | 1018.0 |
| 20260901013524 | 67 | 0 | 0.0 | 0.0 | 0.00 | 0.02 | 0.02 | 97 | 1017.9 |
| 20260901013055 | 67 | 0 | 0.0 | 0.0 | 0.00 | 0.02 | 0.02 | 96 | 1018.0 |
| 20260901012523 | 67 | 0 | 0.0 | 0.0 | 0.00 | 0.02 | 0.02 | 96 | 1018.1 |
| 20260901012025 | 67 | 0 | 0.0 | 0.0 | 0.00 | 0.02 | 0.02 | 96 | 1018.0 |
| 20260901011542 | 67 | 0 | 0.0 | 0.0 | 0.00 | 0.02 | 0.02 | 96 | 1017.9 |
| 20260901011018 | 67 | 0 | 0.0 | 0.0 | 0.00 | 0.02 | 0.02 | 96 | 1017.9 |
| 20260901010520 | 67 | 0 | 0.0 | 0.0 | 0.00 | 0.02 | 0.02 | 96 | 1017.9 |
| 20260901010040 | 67 | 0 | 0.0 | 0.0 | 0.00 | 0.02 | 0.02 | 96 | 1017.7 |
| 20260901005519 | 67 | 0 | 0.0 | 0.0 | 0.00 | 0.02 | 0.02 | 96 | 1017.8 |
| 20260901005024 | 67 | 0 | 0.0 | 0.0 | 0.00 | 0.02 | 0.02 | 96 | 1017.9 |
| 20260901004544 | 67 | 0 | 0.0 | 0.0 | 0.00 | 0.02 | 0.02 | 96 | 1017.6 |
| 20260901004022 | 67 | 0 | 0.0 | 0.0 | 0.00 | 0.02 | 0.02 | 96 | 1017.7 |
| 20260901003523 | 67 | 0 | 0.0 | 0.0 | 0.00 | 0.02 | 0.02 | 96 | 1017.7 |
| 20260901003043 | 67 | 0 | 0.0 | 0.0 | 0.00 | 0.02 | 0.02 | 96 | 1017.6 |
| 20260901002521 | 67 | 0 | 0.0 | 0.0 | 0.00 | 0.02 | 0.02 | 96 | 1017.7 |
| 20260901002024 | 67 | 0 | 0.0 | 0.0 | 0.00 | 0.02 | 0.02 | 95 | 1017.6 |
| 20260901001541 | 67 | 0 | 0.0 | 0.0 | 0.00 | 0.02 | 0.02 | 95 | 1017.5 |
| 20260901001021 | 67 | 0 | 0.0 | 0.0 | 0.00 | 0.02 | 0.02 | 95 | 1017.5 |
| 20260901000520 | 67 | 0 | 0.0 | 0.0 | 0.00 | 0.02 | 0.02 | 95 | 1017.5 |
| 20260901000039 | 67 | 0 | 0.0 | 0.0 | 0.00 | 0.02 | 0.02 | 95 | 1017.6 |
| 20260831235520 | 67 | 0 | 0.0 | 0.0 | 0.00 | 0.02 | 0.02 | 95 | 1017.6 |
| 20260831235020 | 67 | 0 | 0.0 | 0.0 | 0.00 | 0.02 | 0.02 | 95 | 1017.5 |
| 20260831234551 | 67 | 0 | 0.0 | 0.0 | 0.00 | 0.02 | 0.02 | 95 | 1017.6 |
| 20260831234023 | 67 | 0 | 0.0 | 0.0 | 0.00 | 0.02 | 0.02 | 95 | 1017.6 |
| 20260831233523 | 67 | 0 | 0.0 | 0.0 | 0.00 | 0.02 | 0.02 | 94 | 1017.6 |
| 20260831233041 | 67 | 0 | 0.0 | 0.0 | 0.00 | 0.02 | 0.02 | 94 | 1017.7 |
| 20260831232520 | 68 | 0 | 0.0 | 0.0 | 0.00 | 0.02 | 0.02 | 94 | 1017.8 |
| 20260831232018 | 68 | 0 | 0.0 | 0.0 | 0.00 | 0.02 | 0.02 | 94 | 1017.8 |
| 20260831231542 | 68 | 0 | 0.0 | 0.0 | 0.00 | 0.02 | 0.02 | 94 | 1017.9 |
| 20260831231020 | 68 | 0 | 0.0 | 0.0 | 0.00 | 0.02 | 0.02 | 94 | 1017.9 |